User: anonymous   Login
Location: Bailen
(14.1842°N, 120.7958°E)
Time: 12:01:13
(UTC+00:00)
Language:

Atlas Centaur 2 - Orbit

View from above orbital plane
View from above orbital plane
View from above satellite
View from above satellite

Ground track
Ground track

The orbit is defined by the following mean orbital elements,

1 00694U          26064.80027147 +.00000000 +00000-0 +22416-3 0 00007
2 00694  30.3516 217.3796 0547771  46.0087 318.4365 14.12053945    04
Epoch (UTC): 05 March 2026 19:12:23
Eccentricity: 0.0547771
inclination: 30.3516°
perigee height: 456 km
apogee height: 1248 km
right ascension of ascending node: 217.3796°
argument of perigee: 46.0087°
revolutions per day: 14.12053945
mean anomaly at epoch: 318.4365°

The dashed part of the orbit path shows where the satellite is in the earth's shadow,  

DLR